{"data":{"norad_id":60021,"epoch":"2026-09-21T15:46:33.823488Z","epoch_age_seconds":77732,"freshness":"FRESH","line1":"1 60021U 24111F   26264.65733592  .00000297  00000+0  19931-4 0  9992","line2":"2 60021  53.1583 240.6480 0001400  89.7893 270.3270 15.34380065129119","mean_motion":15.34380065,"eccentricity":0.00014,"inclination_deg":53.1583,"raan_deg":240.648,"arg_perigee_deg":89.7893,"mean_anomaly_deg":270.327,"bstar":1.9931e-5,"rev_number":12911,"period_min":93.848977371848,"perigee_km":461.80476594085,"apogee_km":463.72021779858,"semimajor_km":6840.8994918697,"source":"CELESTRAK","updated_at":"2026-09-22T09:00:49.138212Z"}}